Вернуться в каталог

FENGYUN 1C DEB

АктивенPO
NORAD 30707·DEBRIS·🇨🇳 China

Запущен May 10, 1999 с Taiyuan Satellite Launch Center

Loading…

Ближайшие Пролёты (ближайшие 24 часа)

TLE

СвежийSource: Space-Track

Эпоха: Sep 14, 2026, 11:45 UTC

1 30707U 99025ARR 26257.48976331  .00002064  00000-0  84474-3 0  9997
2 30707  99.3958 337.5886 0025030   2.8991 119.3559 14.28270709  7337

Отслеживайте FENGYUN 1C DEB в реальном времени с AllMySat

Download on the App Store